Погода в Шаве

Россия / Республика Дагестан     43°43′25″N   47°01′59″E
темп.,
°C
ветер,
м/с
пор.,
м/с
влажн.,
%
обл.,
%
осадки,
мм/ч
давл.,
гПа
погр.,
м
9 декабря, чт
чт900:00+9всв229373 0.0 100816
03:00+10зсз348994 0.0 100980
06:00+10з5886100 0.0 1009329
09:00+9з91483100 0.0 1011574
12:00+10з81284100 0.3 1012777
15:00+10зсз91378100 0.5 1014930
18:00+10зсз71477100 0.0 1016625
21:00+9з51180100 0.0 1018427
10 декабря, пт
пт1000:00+9з5138235 0.0 1019393
03:00+9зсз6148720 0.0 1021452
06:00+8з6138817 0.0 1022362
09:00+9з6117928 0.0 1024475
12:00+12зсз8106069 0.0 10241170
15:00+12зсз7958100 0.0 10241278
18:00+10з487598 0.0 1025410
21:00+8зсз35865 0.0 102591
11 декабря, сб
сб1100:00+7зсз33780 0.0 102541
03:00+5ссв22905 0.0 102531
06:00+4с23833 0.0 102538
09:00+5ссв23743 0.0 1026171
12:00+8с33580 0.0 1026510
15:00+9ссв32572 0.0 1026593
18:00+4св357360 0.0 1028118
21:00+3св22765 0.0 102937
12 декабря, вс
вс1200:00+3св2281100 0.0 102920
03:00+2всв22885 0.0 102918
06:00+2св228661 0.0 103025
09:00+4всв24762 0.0 1031161
12:00+8в45575 0.0 1030725
15:00+7всв56625 0.0 1030698
18:00+4всв48765 0.0 1032239
21:00+3в510805 0.0 1031269
13 декабря, пн
пн1300:00+3в612812 0.0 1030339
03:00+4в613822 0.0 1029379
06:00+5в8148112 0.0 1029505
09:00+6вюв9147137 0.0 1029802
12:00+8вюв11146319 0.0 1027868
15:00+8вюв10156828 0.0 1026869
18:00+7вюв10167328 0.0 1026836
21:00+7вюв11177436 0.0 1025857